TimeEST,TemperatureF,Dew PointF,Humidity,Sea Level PressureIn,VisibilityMPH,Wind Direction,Wind SpeedMPH,Gust SpeedMPH,PrecipitationIn,Events,Conditions,WindDirDegrees,DateUTC
12:53 AM,69.1,64.0,84,30.08,10.0,NNW,5.8,-,N/A,,Partly Cloudy,340,2012-11-14 05:53:00
1:53 AM,69.1,64.9,87,30.07,10.0,North,5.8,-,N/A,,Clear,360,2012-11-14 06:53:00
2:53 AM,68.0,64.9,90,30.06,10.0,North,5.8,-,N/A,,Clear,10,2012-11-14 07:53:00
3:53 AM,68.0,64.9,90,30.06,10.0,NNE,5.8,-,N/A,,Clear,20,2012-11-14 08:53:00
4:53 AM,66.9,64.9,93,30.06,10.0,NNE,5.8,-,N/A,,Clear,20,2012-11-14 09:53:00
5:53 AM,66.9,64.9,93,30.07,10.0,NW,3.5,-,N/A,,Partly Cloudy,320,2012-11-14 10:53:00
6:53 AM,66.9,64.9,93,30.08,10.0,North,5.8,-,N/A,,Scattered Clouds,350,2012-11-14 11:53:00
7:53 AM,70.0,66.0,87,30.10,10.0,North,9.2,-,N/A,,Clear,350,2012-11-14 12:53:00
8:53 AM,73.0,66.9,81,30.13,10.0,NNW,5.8,-,N/A,,Partly Cloudy,340,2012-11-14 13:53:00
9:53 AM,79.0,68.0,69,30.12,10.0,NE,9.2,-,N/A,,Partly Cloudy,50,2012-11-14 14:53:00
10:53 AM,79.0,64.0,60,30.11,10.0,ENE,12.7,21.9,N/A,,Partly Cloudy,70,2012-11-14 15:53:00
11:53 AM,81.0,66.0,60,30.09,10.0,ENE,13.8,21.9,N/A,,Mostly Cloudy,60,2012-11-14 16:53:00
12:53 PM,82.0,66.0,58,30.08,10.0,ENE,12.7,-,N/A,,Mostly Cloudy,70,2012-11-14 17:53:00
1:53 PM,81.0,64.0,56,30.07,10.0,ENE,11.5,-,N/A,,Clear,70,2012-11-14 18:53:00
2:53 PM,80.1,63.0,56,30.06,10.0,ENE,13.8,-,N/A,,Partly Cloudy,70,2012-11-14 19:53:00
3:53 PM,78.1,64.9,64,30.06,10.0,ENE,13.8,-,N/A,,Partly Cloudy,70,2012-11-14 20:53:00
4:53 PM,77.0,64.9,66,30.06,10.0,East,9.2,-,N/A,,Mostly Cloudy,80,2012-11-14 21:53:00
5:53 PM,75.9,64.9,69,30.07,10.0,ENE,6.9,-,N/A,,Partly Cloudy,60,2012-11-14 22:53:00
6:53 PM,75.0,64.0,69,30.08,10.0,NE,5.8,-,N/A,,Partly Cloudy,50,2012-11-14 23:53:00
7:53 PM,73.9,64.0,71,30.09,10.0,NE,3.5,-,N/A,,Partly Cloudy,40,2012-11-15 00:53:00
8:53 PM,73.0,66.0,79,30.10,10.0,NNE,4.6,-,0.04,,Mostly Cloudy,20,2012-11-15 01:53:00
9:53 PM,72.0,66.0,81,30.10,10.0,NE,5.8,-,N/A,,Partly Cloudy,40,2012-11-15 02:53:00
10:53 PM,73.0,64.9,76,30.10,10.0,ENE,5.8,-,N/A,,Overcast,60,2012-11-15 03:53:00
11:53 PM,73.0,66.0,79,30.09,10.0,East,8.1,-,0.00,,Overcast,80,2012-11-15 04:53:00